SCP
0 0 0 0 0 0 0 0 0 0 0 0 0 0 0 0 0 0 0 0 0 0 0 0 0 0 0 0 0 0 0 0 0 0 -0 0 0 0 0 0 0 0 0 0
0 0 0 0 0 0 0 0 0 0 0 0 0 0 0 0 0 0 0 0 0 0 0 0 0 0 0 0 0 0 0 0 0 0 -0 -0 0 0 0 0 0 0 0 0
0 0 0 0 0 0 0 0 0 0 0 0 0 0 0 0 0 -0 0 0 0 0 0 0 0 0 0 0 0 0 0 0 0 0 0 -0 0 0 0 0 0 0 0 0
0 0 0 0 0 0 0 0 0 0 0 0 0 0 0 0 0 0 0 0 -0 0 0 0 0 0 0 0 -0 0 0 0 0 0 0 0 0 0 0 0 0 0 0 0
0 0 0 0 0 0 0 0 0 0 0 0 0 0 0 0 0 0 0 0 0 0 0 0 0 0 -0 -0 0 0 0 0 0 0 0 0 0 0 0 0 0 0 0 0
0 0 0 0 0 0 0 0 0 0 0 0 0 0 -0 0 0 0 0 0 0 0 0 0 0 -0 -0 0 -0 -0 -0 0 -0 -0 0 0 0 0 0 0 0 0 0 0
0 0 0 0 0 0 0 0 0 0 0 0 0 0 -0 -0 -0 0 0 -0 -0 0 0 0 -0 -0 0 -0 -0 -0 0 -0 0 0 0 0 0 0 0 0 0 -0 0 -0
0 0 0 0 0 0 0 0 0 0 0 0 0 -0 -0 -0 0 0 -0 -0 -0 -0 0 -0 0 -0 -0 -0 -0 0 -0 -0 -0 -0 0 0 0 -0 -0 -0 -0 -0 0 0
0 0 0 0 0 0 0 0 0 0 0 0 0 -0 -0 -0 -0 0 0 -0 0 -0 -0 0 -0 0 0 -0 0 -0 -0 -0 -0 -0 0 -0 -0 0 -0 0 0 0 0 0
0 0 0 0 0 0 0 0 0 0 0 0 0 0 -0 -0 -0 0 0 0 0 -0 -0 -0 0 0 0 0 0 -0 -0 -0 -0 -0 0 0 0 -0 -0 0 0 0 0 -0
0 0 0 0 0 0 0 0 0 0 0 0 0 -0 -0 -0 0 0 -0 -0 -0 -0 -0 -0 0 0 0 0 -0 -0 -0 -0 -0 -0 0 0 0 0 0 0 0 0 0 0
0 0 0 0 0 0 0 0 0 0 0 0 0 -0 -0 0 0 -0 -0 -0 0 0 0 0 0 0 0 0 0 0 0 -0 -0 -0 0 0 -0 0 0 0 0 0 0 0
0 0 0 0 0 0 0 0 0 0 -0 0 0 0 0 0 -0 -0 -0 -0 0 0 0 0 0 0 0 0 0 0 0 0 -0 -0 0 0 0 0 0 0 0 0 0 0
0 0 0 0 0 0 0 0 0 0 0 0 0 0 0 0 -0 -0 0 0 0 0 0 0 0 0 0 0 0 0 -0 0 0 0 0 0 0 0 0 0 0 0 0 0
0 0 0 0 0 0 0 0 0 0 0 0 0 -0 -0 -0 -0 0 0 0 0 0 0 0 0 0 0 0 -0 -0 0 0 0 0 0 0 0 0 0 0 0 0 0 0
0 0 0 0 0 0 -0 0 0 0 -0 -0 -0 -0 -0 0 0 0 0 0 0 0 0 0 0 0 0 0 0 0 0 0 0 0 0 0 0 0 0 0 0 0 0 0
0 0 0 0 0 -0 0 0 -0 0 0 0 0 0 0 0 0 0 0 0 0 0 0 0 0 0 0 0 0 0 0 0 0 0 0 0 -0 0 0 0 0 0 0 0
0 0 0 0 -0 0 0 -0 -0 0 0 0 0 0 0 0 0 0 0 0 0 0 0 0 0 0 0 0 0 0 0 0 0 0 0 -0 0 0 0 0 0 0 0 0
0 0 0 0 0 0 -0 -0 0 0 0 0 0 0 0 0 0 0 0 0 0 0 0 0 0 0 0 0 0 0 0 0 0 0 -0 0 0 0 0 0 0 0 0 0
0 0 -0 0 0 0 0 0 0 0 0 0 0 0 0 0 0 0 0 0 0 0 0 0 0 -0 0 0 0 0 0 0 0 0 0 0 0 0 0 0 0 0 0 0
0 -0 0 -0 0 0 0 0 0 0 0 0 0 0 0 0 0 0 0 0 0 0 0 0 0 0 0 0 0 0 0 0 0 0 0 0 0 0 0 0 0 0 0 0
0 -0 -0 0 0 0 0 0 0 0 0 0 0 0 0 0 0 0 0 0 0 0 0 0 0 0 0 0 0 0 0 0 0 0 0 0 0 0 0 0 0 0 0 0
-0 -0 0 0 0 0 0 0 0 0 0 0 0 0 0 0 0 0 0 0 0 0 0 0 0 0 0 0 0 0 0 0 0 0 0 0 0 0 0 0 0 0 0 0
-0 -0 0 0 0 0 0 0 0 0 0 0 0 0 0 0 0 0 0 0 0 0 0 0 0 0 0 0 0 0 0 0 0 0 0 0 0 0 0 0 0 0 0 0
-0 0 0 0 0 0 0 0 0 0 0 0 0 0 0 0 0 0 0 0 0 0 0 0 0 0 0 0 0 0 0 0 0 0 0 0 0 0 0 0 0 0 0 0
-0 0 0 0 0 0 0 0 0 0 0 0 0 0 0 0 0 0 0 0 0 0 0 0 0 0 0 0 0 0 0 0 0 0 0 0 0 0 0 0 0 0 0 0
0 0 0 0 0 0 0 0 0 0 0 0 0 0 0 0 0 0 0 0 0 0 0 0 0 0 0 0 0 0 0 0 0 -0 -0 -0 0 0 0 0 0 0 0 0
Wind_Speed_500mb
35 37 38 39 38 34 35 35 32 37 37 31 24 22 38 41 39 47 40 38 43 45 41 40 51 49 48 47 39 40 40 38 35 33 43 23 40 34 32 32 28 27 27 26
36 37 30 31 39 41 38 33 34 30 32 25 29 30 29 39 49 50 52 52 42 48 45 54 54 54 44 39 40 41 41 40 33 30 32 30 36 28 28 23 22 20 19 19
24 23 37 29 14 19 17 20 24 23 27 26 21 28 43 51 55 61 51 59 63 53 57 58 57 44 48 46 45 44 38 33 31 27 17 33 27 19 15 15 15 16 19 19
16 25 9 6 19 18 20 21 22 29 31 19 27 44 53 59 54 59 57 58 57 57 52 47 45 46 44 39 35 34 31 29 27 18 30 26 17 8 10 14 16 17 19 19
6 11 34 36 7 9 22 29 32 17 24 41 50 57 53 51 52 54 59 61 56 52 47 49 48 44 38 37 30 31 28 27 25 18 22 13 3 11 17 18 21 21 23 21
13 9 14 18 12 4 21 30 9 28 38 43 50 28 33 66 67 59 57 52 50 42 48 55 49 41 36 36 28 28 22 20 11 18 9 4 13 22 24 23 28 29 33 34
23 16 19 14 18 16 18 14 54 55 56 51 37 52 71 73 68 55 59 61 58 54 49 47 43 32 38 28 26 20 17 15 22 7 7 18 28 28 27 30 32 47 41 33
16 15 24 20 27 18 29 52 56 59 45 66 69 71 77 72 62 62 70 66 61 60 55 41 31 35 27 26 17 15 14 10 1 18 29 35 37 40 41 48 47 39 36 39
12 12 38 53 33 46 43 46 52 55 53 61 65 65 66 70 78 67 65 55 44 36 25 29 27 23 26 28 9 14 10 9 27 38 42 50 56 48 46 41 38 37 33 36
29 22 36 50 51 38 43 45 54 62 59 53 69 61 75 75 65 59 54 44 38 39 30 32 27 13 11 9 15 18 13 35 47 49 57 51 39 35 39 37 35 35 34 33
31 45 52 40 37 40 51 50 58 60 44 46 64 69 68 65 61 58 62 52 35 28 23 13 11 13 16 19 21 21 42 53 57 60 39 51 52 44 42 38 35 36 40 37
26 45 43 53 51 50 45 56 53 44 53 61 64 60 55 59 58 63 52 37 24 20 13 12 24 25 24 28 22 45 62 62 60 49 43 50 55 57 51 47 45 44 45 45
46 50 52 56 55 43 59 40 36 49 62 60 48 46 46 59 54 37 28 24 21 20 20 30 31 34 32 28 39 62 66 68 60 49 50 54 52 52 53 52 49 52 51 51
33 30 42 44 53 51 36 39 57 57 43 39 41 41 47 37 25 26 27 22 19 29 37 41 45 44 30 31 58 70 73 53 48 47 48 48 45 43 41 41 42 44 43 39
32 28 35 49 48 41 42 58 46 43 41 44 43 36 24 17 13 11 18 30 42 50 52 53 50 44 36 50 72 76 57 42 46 47 42 43 43 42 42 40 39 37 34 38
33 38 42 40 46 49 53 40 39 48 47 45 33 18 10 4 9 24 41 46 60 60 55 53 51 45 49 67 80 54 34 50 48 47 42 42 40 39 37 36 37 37 40 38
36 39 38 41 39 44 39 36 38 44 39 31 17 7 9 16 25 33 43 47 52 53 53 54 52 52 63 81 60 44 53 49 49 45 41 39 37 35 37 40 42 45 45 45
27 36 28 35 35 35 37 34 33 34 27 19 12 10 18 31 39 44 46 50 53 54 51 52 57 65 84 71 50 50 49 48 45 43 41 41 41 41 42 43 45 46 46 47
29 23 40 28 25 30 30 29 27 20 20 15 15 25 33 40 43 46 50 52 53 55 52 55 65 86 78 65 51 47 47 46 44 44 45 45 42 41 41 42 42 43 43 44
29 29 30 21 21 24 22 17 13 15 12 15 24 31 38 41 42 46 50 58 56 58 59 69 81 85 64 62 47 45 45 45 49 45 42 42 42 43 43 44 43 44 45 46
24 30 18 17 18 17 11 12 8 11 12 18 25 31 36 37 37 45 57 65 59 66 76 92 85 61 38 47 47 46 49 46 45 44 43 45 44 42 42 42 43 44 46 46
26 19 15 11 11 9 9 5 10 15 21 24 28 32 40 43 49 56 63 76 79 87 92 63 48 51 52 49 49 46 46 45 44 43 42 41 42 41 41 41 43 44 44 42
15 14 16 6 3 6 6 9 13 17 22 24 32 38 45 48 54 70 77 80 88 88 57 49 59 57 55 48 47 45 45 42 42 41 41 40 40 39 40 41 42 42 41 40
13 11 9 4 5 5 13 14 17 20 25 29 35 43 49 58 63 73 84 86 73 50 46 66 63 58 48 47 45 43 42 41 41 40 41 40 39 39 39 38 40 42 43 42
12 5 6 5 4 8 14 18 22 25 28 35 41 38 42 48 65 80 85 64 64 58 65 66 62 54 44 44 43 41 40 39 40 39 40 40 39 38 39 39 37 37 37 37
7 3 2 3 5 12 16 19 22 26 34 42 42 42 43 54 64 69 71 66 54 57 54 52 44 44 41 41 40 39 38 42 40 39 39 38 38 37 36 39 37 35 35 36
3 5 7 8 7 14 16 20 21 28 36 41 40 41 48 57 66 70 70 52 51 50 42 39 42 42 40 40 36 38 38 36 38 37 38 36 36 37 35 34 34 35 35 33
Wind_Direction_500mb
280 291 292 286 281 280 277 276 276 288 295 334 330 331 330 341 346 331 320 315 316 307 313 320 322 330 319 315 310 306 305 301 300 306 304 323 326 321 330 332 334 337 341 348
286 277 278 297 292 285 271 267 269 293 302 19 338 329 348 329 324 323 319 317 326 327 325 324 322 320 315 311 310 306 301 294 296 302 305 314 315 320 326 341 355 6 18 26
283 326 317 284 297 335 315 298 290 295 301 336 347 331 328 322 322 318 315 318 320 313 313 319 312 309 309 305 305 305 292 289 289 298 297 313 313 314 342 11 29 50 63 75
295 309 263 235 346 324 308 291 299 303 325 352 328 324 317 313 322 319 319 317 309 307 305 314 310 306 300 303 302 302 294 287 283 280 297 312 304 356 43 61 66 73 91 98
271 286 281 283 78 343 329 308 315 9 350 333 323 316 308 317 332 318 312 309 303 302 303 310 305 305 304 301 298 301 296 298 295 272 305 296 34 75 84 87 92 91 89 83
294 303 281 1 31 3 314 290 41 329 323 320 320 308 306 323 319 314 311 306 305 304 301 303 306 305 299 291 290 294 293 320 250 318 315 99 102 104 99 95 94 92 93 89
234 236 268 314 15 327 286 327 328 328 320 307 308 304 308 317 315 311 311 307 301 299 296 296 292 287 286 280 278 283 276 252 305 323 110 114 111 104 104 102 95 79 80 82
229 259 269 27 335 326 322 314 310 307 306 310 308 306 311 314 310 314 310 306 301 292 291 287 282 284 265 258 268 283 232 284 172 117 120 116 104 96 92 85 84 86 87 77
280 259 307 315 331 318 308 308 304 311 313 311 304 310 311 311 310 310 308 304 303 300 293 287 274 259 259 267 242 249 220 126 122 127 116 106 97 92 88 88 86 83 77 72
265 274 291 300 299 302 302 309 309 308 311 314 311 310 313 310 310 309 306 304 298 290 284 275 273 235 211 173 182 174 136 131 130 119 108 92 85 99 94 88 85 79 71 67
277 283 286 292 291 313 311 312 311 309 316 313 313 310 308 307 307 307 305 309 300 280 276 266 187 162 145 169 171 141 136 132 123 114 97 107 102 92 93 84 85 82 86 79
275 285 288 295 302 308 309 310 313 315 313 311 308 305 306 306 304 310 310 310 280 257 237 179 152 139 150 152 148 144 135 130 118 106 105 101 101 97 92 93 91 90 92 82
280 287 288 296 302 306 317 321 314 312 310 308 307 304 305 305 313 315 322 302 254 216 181 154 147 147 145 137 142 139 132 119 108 108 107 107 104 100 96 96 89 82 86 89
290 303 290 301 309 316 322 317 318 311 308 307 306 306 306 317 326 335 318 294 189 160 155 147 151 149 144 131 139 135 125 115 116 116 113 109 108 107 100 97 89 81 82 82
302 299 293 303 314 324 322 323 317 315 315 314 315 313 328 1 357 21 99 120 133 137 144 155 149 141 138 141 140 128 111 115 119 119 117 111 107 104 100 95 90 85 80 74
309 305 307 324 324 321 323 320 317 321 324 322 323 339 37 58 113 119 120 130 133 139 148 146 141 136 140 140 132 115 107 124 121 117 113 110 106 102 96 92 88 83 76 73
317 324 327 322 321 322 319 317 321 325 330 344 357 65 87 137 127 132 129 135 138 140 143 143 137 139 139 137 125 118 122 120 118 115 112 108 104 100 97 93 87 84 79 78
325 314 319 318 319 319 329 329 330 333 1 22 50 81 115 127 127 130 134 138 137 135 138 138 137 136 134 126 119 122 119 120 119 114 110 107 103 100 97 93 90 86 80 72
324 331 315 318 316 324 323 328 331 356 12 13 92 112 118 124 127 128 132 133 132 130 132 133 134 136 128 117 121 120 123 122 116 114 112 106 104 102 100 98 93 87 83 77
328 320 324 316 328 329 332 330 356 12 30 91 113 124 118 120 130 133 133 129 129 126 129 131 134 131 119 119 119 128 125 122 116 113 114 112 109 107 104 99 94 89 85 79
330 331 330 337 336 338 337 355 15 43 83 118 128 124 120 125 130 129 127 122 124 129 132 131 130 125 123 124 131 127 122 121 120 119 117 113 109 108 104 99 95 90 85 82
333 340 346 349 341 355 357 38 72 88 110 120 127 130 130 131 134 134 129 128 131 132 129 125 128 130 129 127 128 127 124 122 121 120 119 117 113 110 106 102 96 91 88 85
347 357 351 358 355 358 63 91 96 111 117 121 129 133 132 134 136 131 129 134 138 134 122 134 136 133 130 133 129 126 124 124 124 123 121 118 115 112 109 104 99 95 91 87
354 3 20 62 45 80 98 98 108 114 115 119 126 132 137 139 136 134 134 137 134 124 137 133 132 128 129 131 129 127 127 127 126 125 124 121 117 112 106 105 103 99 92 86
357 4 49 82 62 118 118 114 115 117 121 124 130 128 136 136 138 140 143 139 130 133 136 133 129 127 132 131 130 129 130 131 129 128 123 119 119 116 110 106 103 101 98 95
357 43 117 100 142 141 126 131 127 134 136 136 136 135 135 138 136 139 139 130 132 134 137 130 128 133 136 133 132 134 138 136 129 128 125 122 120 119 118 113 108 106 105 103
7 98 115 137 133 144 137 140 140 140 141 141 138 141 139 139 141 139 136 133 137 138 137 140 137 138 140 137 142 135 129 137 133 130 128 126 126 122 121 120 117 113 110 107
Wind_Speed_850mb
35 37 38 39 38 34 35 35 32 37 37 31 24 22 38 41 39 47 40 38 43 45 41 40 51 49 48 47 39 40 40 38 35 33 43 23 40 34 32 32 28 27 27 26
36 37 30 31 39 41 38 33 34 30 32 25 29 30 29 39 49 50 52 52 42 48 45 54 54 54 44 39 40 41 41 40 33 30 32 30 36 28 28 23 22 20 19 19
24 23 37 29 14 19 17 20 24 23 27 26 21 28 43 51 55 61 51 59 63 53 57 58 57 44 48 46 45 44 38 33 31 27 17 33 27 19 15 15 15 16 19 19
16 25 9 6 19 18 20 21 22 29 31 19 27 44 53 59 54 59 57 58 57 57 52 47 45 46 44 39 35 34 31 29 27 18 30 26 17 8 10 14 16 17 19 19
6 11 34 36 7 9 22 29 32 17 24 41 50 57 53 51 52 54 59 61 56 52 47 49 48 44 38 37 30 31 28 27 25 18 22 13 3 11 17 18 21 21 23 21
13 9 14 18 12 4 21 30 9 28 38 43 50 28 33 66 67 59 57 52 50 42 48 55 49 41 36 36 28 28 22 20 11 18 9 4 13 22 24 23 28 29 33 34
23 16 19 14 18 16 18 14 54 55 56 51 37 52 71 73 68 55 59 61 58 54 49 47 43 32 38 28 26 20 17 15 22 7 7 18 28 28 27 30 32 47 41 33
16 15 24 20 27 18 29 52 56 59 45 66 69 71 77 72 62 62 70 66 61 60 55 41 31 35 27 26 17 15 14 10 1 18 29 35 37 40 41 48 47 39 36 39
12 12 38 53 33 46 43 46 52 55 53 61 65 65 66 70 78 67 65 55 44 36 25 29 27 23 26 28 9 14 10 9 27 38 42 50 56 48 46 41 38 37 33 36
29 22 36 50 51 38 43 45 54 62 59 53 69 61 75 75 65 59 54 44 38 39 30 32 27 13 11 9 15 18 13 35 47 49 57 51 39 35 39 37 35 35 34 33
31 45 52 40 37 40 51 50 58 60 44 46 64 69 68 65 61 58 62 52 35 28 23 13 11 13 16 19 21 21 42 53 57 60 39 51 52 44 42 38 35 36 40 37
26 45 43 53 51 50 45 56 53 44 53 61 64 60 55 59 58 63 52 37 24 20 13 12 24 25 24 28 22 45 62 62 60 49 43 50 55 57 51 47 45 44 45 45
46 50 52 56 55 43 59 40 36 49 62 60 48 46 46 59 54 37 28 24 21 20 20 30 31 34 32 28 39 62 66 68 60 49 50 54 52 52 53 52 49 52 51 51
33 30 42 44 53 51 36 39 57 57 43 39 41 41 47 37 25 26 27 22 19 29 37 41 45 44 30 31 58 70 73 53 48 47 48 48 45 43 41 41 42 44 43 39
32 28 35 49 48 41 42 58 46 43 41 44 43 36 24 17 13 11 18 30 42 50 52 53 50 44 36 50 72 76 57 42 46 47 42 43 43 42 42 40 39 37 34 38
33 38 42 40 46 49 53 40 39 48 47 45 33 18 10 4 9 24 41 46 60 60 55 53 51 45 49 67 80 54 34 50 48 47 42 42 40 39 37 36 37 37 40 38
36 39 38 41 39 44 39 36 38 44 39 31 17 7 9 16 25 33 43 47 52 53 53 54 52 52 63 81 60 44 53 49 49 45 41 39 37 35 37 40 42 45 45 45
27 36 28 35 35 35 37 34 33 34 27 19 12 10 18 31 39 44 46 50 53 54 51 52 57 65 84 71 50 50 49 48 45 43 41 41 41 41 42 43 45 46 46 47
29 23 40 28 25 30 30 29 27 20 20 15 15 25 33 40 43 46 50 52 53 55 52 55 65 86 78 65 51 47 47 46 44 44 45 45 42 41 41 42 42 43 43 44
29 29 30 21 21 24 22 17 13 15 12 15 24 31 38 41 42 46 50 58 56 58 59 69 81 85 64 62 47 45 45 45 49 45 42 42 42 43 43 44 43 44 45 46
24 30 18 17 18 17 11 12 8 11 12 18 25 31 36 37 37 45 57 65 59 66 76 92 85 61 38 47 47 46 49 46 45 44 43 45 44 42 42 42 43 44 46 46
26 19 15 11 11 9 9 5 10 15 21 24 28 32 40 43 49 56 63 76 79 87 92 63 48 51 52 49 49 46 46 45 44 43 42 41 42 41 41 41 43 44 44 42
15 14 16 6 3 6 6 9 13 17 22 24 32 38 45 48 54 70 77 80 88 88 57 49 59 57 55 48 47 45 45 42 42 41 41 40 40 39 40 41 42 42 41 40
13 11 9 4 5 5 13 14 17 20 25 29 35 43 49 58 63 73 84 86 73 50 46 66 63 58 48 47 45 43 42 41 41 40 41 40 39 39 39 38 40 42 43 42
12 5 6 5 4 8 14 18 22 25 28 35 41 38 42 48 65 80 85 64 64 58 65 66 62 54 44 44 43 41 40 39 40 39 40 40 39 38 39 39 37 37 37 37
7 3 2 3 5 12 16 19 22 26 34 42 42 42 43 54 64 69 71 66 54 57 54 52 44 44 41 41 40 39 38 42 40 39 39 38 38 37 36 39 37 35 35 36
3 5 7 8 7 14 16 20 21 28 36 41 40 41 48 57 66 70 70 52 51 50 42 39 42 42 40 40 36 38 38 36 38 37 38 36 36 37 35 34 34 35 35 33
Wind_Direction_850mb
280 291 292 286 281 280 277 276 276 288 295 334 330 331 330 341 346 331 320 315 316 307 313 320 322 330 319 315 310 306 305 301 300 306 304 323 326 321 330 332 334 337 341 348
286 277 278 297 292 285 271 267 269 293 302 19 338 329 348 329 324 323 319 317 326 327 325 324 322 320 315 311 310 306 301 294 296 302 305 314 315 320 326 341 355 6 18 26
283 326 317 284 297 335 315 298 290 295 301 336 347 331 328 322 322 318 315 318 320 313 313 319 312 309 309 305 305 305 292 289 289 298 297 313 313 314 342 11 29 50 63 75
295 309 263 235 346 324 308 291 299 303 325 352 328 324 317 313 322 319 319 317 309 307 305 314 310 306 300 303 302 302 294 287 283 280 297 312 304 356 43 61 66 73 91 98
271 286 281 283 78 343 329 308 315 9 350 333 323 316 308 317 332 318 312 309 303 302 303 310 305 305 304 301 298 301 296 298 295 272 305 296 34 75 84 87 92 91 89 83
294 303 281 1 31 3 314 290 41 329 323 320 320 308 306 323 319 314 311 306 305 304 301 303 306 305 299 291 290 294 293 320 250 318 315 99 102 104 99 95 94 92 93 89
234 236 268 314 15 327 286 327 328 328 320 307 308 304 308 317 315 311 311 307 301 299 296 296 292 287 286 280 278 283 276 252 305 323 110 114 111 104 104 102 95 79 80 82
229 259 269 27 335 326 322 314 310 307 306 310 308 306 311 314 310 314 310 306 301 292 291 287 282 284 265 258 268 283 232 284 172 117 120 116 104 96 92 85 84 86 87 77
280 259 307 315 331 318 308 308 304 311 313 311 304 310 311 311 310 310 308 304 303 300 293 287 274 259 259 267 242 249 220 126 122 127 116 106 97 92 88 88 86 83 77 72
265 274 291 300 299 302 302 309 309 308 311 314 311 310 313 310 310 309 306 304 298 290 284 275 273 235 211 173 182 174 136 131 130 119 108 92 85 99 94 88 85 79 71 67
277 283 286 292 291 313 311 312 311 309 316 313 313 310 308 307 307 307 305 309 300 280 276 266 187 162 145 169 171 141 136 132 123 114 97 107 102 92 93 84 85 82 86 79
275 285 288 295 302 308 309 310 313 315 313 311 308 305 306 306 304 310 310 310 280 257 237 179 152 139 150 152 148 144 135 130 118 106 105 101 101 97 92 93 91 90 92 82
280 287 288 296 302 306 317 321 314 312 310 308 307 304 305 305 313 315 322 302 254 216 181 154 147 147 145 137 142 139 132 119 108 108 107 107 104 100 96 96 89 82 86 89
290 303 290 301 309 316 322 317 318 311 308 307 306 306 306 317 326 335 318 294 189 160 155 147 151 149 144 131 139 135 125 115 116 116 113 109 108 107 100 97 89 81 82 82
302 299 293 303 314 324 322 323 317 315 315 314 315 313 328 1 357 21 99 120 133 137 144 155 149 141 138 141 140 128 111 115 119 119 117 111 107 104 100 95 90 85 80 74
309 305 307 324 324 321 323 320 317 321 324 322 323 339 37 58 113 119 120 130 133 139 148 146 141 136 140 140 132 115 107 124 121 117 113 110 106 102 96 92 88 83 76 73
317 324 327 322 321 322 319 317 321 325 330 344 357 65 87 137 127 132 129 135 138 140 143 143 137 139 139 137 125 118 122 120 118 115 112 108 104 100 97 93 87 84 79 78
325 314 319 318 319 319 329 329 330 333 1 22 50 81 115 127 127 130 134 138 137 135 138 138 137 136 134 126 119 122 119 120 119 114 110 107 103 100 97 93 90 86 80 72
324 331 315 318 316 324 323 328 331 356 12 13 92 112 118 124 127 128 132 133 132 130 132 133 134 136 128 117 121 120 123 122 116 114 112 106 104 102 100 98 93 87 83 77
328 320 324 316 328 329 332 330 356 12 30 91 113 124 118 120 130 133 133 129 129 126 129 131 134 131 119 119 119 128 125 122 116 113 114 112 109 107 104 99 94 89 85 79
330 331 330 337 336 338 337 355 15 43 83 118 128 124 120 125 130 129 127 122 124 129 132 131 130 125 123 124 131 127 122 121 120 119 117 113 109 108 104 99 95 90 85 82
333 340 346 349 341 355 357 38 72 88 110 120 127 130 130 131 134 134 129 128 131 132 129 125 128 130 129 127 128 127 124 122 121 120 119 117 113 110 106 102 96 91 88 85
347 357 351 358 355 358 63 91 96 111 117 121 129 133 132 134 136 131 129 134 138 134 122 134 136 133 130 133 129 126 124 124 124 123 121 118 115 112 109 104 99 95 91 87
354 3 20 62 45 80 98 98 108 114 115 119 126 132 137 139 136 134 134 137 134 124 137 133 132 128 129 131 129 127 127 127 126 125 124 121 117 112 106 105 103 99 92 86
357 4 49 82 62 118 118 114 115 117 121 124 130 128 136 136 138 140 143 139 130 133 136 133 129 127 132 131 130 129 130 131 129 128 123 119 119 116 110 106 103 101 98 95
357 43 117 100 142 141 126 131 127 134 136 136 136 135 135 138 136 139 139 130 132 134 137 130 128 133 136 133 132 134 138 136 129 128 125 122 120 119 118 113 108 106 105 103
7 98 115 137 133 144 137 140 140 140 141 141 138 141 139 139 141 139 136 133 137 138 137 140 137 138 140 137 142 135 129 137 133 130 128 126 126 122 121 120 117 113 110 107